| time (UTC) | temp C | wind direction | speed KPH | gust KPH | rain 1hr cm | rain 24hr cm | rain mn cm | humidity % | barometer mb |
| 20260508222306 | 13 | 340 | 4.8 | 22.5 | 0.00 | 0.61 | 0.61 | 90 | 1006.1 |
| 20260508221804 | 13 | 323 | 8.0 | 16.1 | 0.00 | 0.61 | 0.61 | 90 | 1006.3 |
| 20260508221305 | 13 | 312 | 4.8 | 19.3 | 0.00 | 0.61 | 0.61 | 90 | 1006.3 |
| 20260508215306 | 13 | 323 | 8.0 | 22.5 | 0.00 | 0.61 | 0.61 | 91 | 1005.6 |
| 20260508214805 | 13 | 310 | 8.0 | 22.5 | 0.00 | 0.61 | 0.61 | 91 | 1006.0 |
| 20260508205306 | 13 | 310 | 9.7 | 25.7 | 0.00 | 0.61 | 0.61 | 91 | 1005.3 |
| 20260508204304 | 13 | 328 | 6.4 | 27.4 | 0.00 | 0.61 | 0.61 | 91 | 1005.3 |
| 20260508203806 | 13 | 311 | 9.7 | 32.2 | 0.00 | 0.61 | 0.61 | 91 | 1005.1 |
| 20260508201304 | 13 | 344 | 8.0 | 35.4 | 0.00 | 0.61 | 0.61 | 92 | 1004.8 |
| 20260508200804 | 13 | 321 | 9.7 | 24.1 | 0.00 | 0.61 | 0.61 | 92 | 1005.1 |
| 20260508194305 | 14 | 328 | 8.0 | 20.9 | 0.00 | 0.61 | 0.61 | 93 | 1004.8 |
| 20260508191304 | 14 | 304 | 4.8 | 27.4 | 0.05 | 0.61 | 0.61 | 92 | 1004.2 |
| 20260508190804 | 14 | 341 | 4.8 | 20.9 | 0.13 | 0.61 | 0.61 | 92 | 1004.6 |
| 20260508184304 | 14 | 292 | 8.0 | 19.3 | 0.23 | 0.61 | 0.61 | 91 | 1004.9 |
| 20260508183804 | 13 | 315 | 4.8 | 22.5 | 0.23 | 0.61 | 0.61 | 91 | 1005.1 |
| 20260508183305 | 13 | 327 | 8.0 | 19.3 | 0.23 | 0.61 | 0.61 | 90 | 1004.9 |
| 20260508182805 | 13 | 316 | 8.0 | 22.5 | 0.23 | 0.61 | 0.61 | 89 | 1004.8 |
| 20260508182306 | 13 | 321 | 6.4 | 25.7 | 0.23 | 0.61 | 0.61 | 87 | 1004.9 |
| 20260508181805 | 13 | 306 | 8.0 | 19.3 | 0.23 | 0.61 | 0.61 | 85 | 1004.8 |
| 20260508180805 | 15 | 323 | 9.7 | 20.9 | 0.13 | 0.51 | 0.51 | 82 | 1004.7 |
| 20260508173304 | 15 | 326 | 9.7 | 25.7 | 0.00 | 0.38 | 0.38 | 77 | 1004.4 |
| 20260508172805 | 15 | 289 | 11.3 | 29.0 | 0.00 | 0.38 | 0.38 | 77 | 1004.7 |
| 20260508172307 | 15 | 306 | 8.0 | 27.4 | 0.00 | 0.38 | 0.38 | 76 | 1004.3 |
| 20260508171304 | 16 | 297 | 11.3 | 32.2 | 0.00 | 0.38 | 0.38 | 77 | 1004.5 |
| 20260508170804 | 16 | 285 | 11.3 | 29.0 | 0.00 | 0.38 | 0.38 | 74 | 1004.8 |
| 20260508170304 | 16 | 296 | 9.7 | 29.0 | 0.00 | 0.38 | 0.38 | 72 | 1004.9 |
| 20260508165804 | 16 | 259 | 9.7 | 40.2 | 0.00 | 0.38 | 0.38 | 75 | 1004.7 |
| 20260508165306 | 16 | 317 | 11.3 | 32.2 | 0.00 | 0.38 | 0.38 | 78 | 1004.5 |
| 20260508164804 | 16 | 300 | 9.7 | 29.0 | 0.00 | 0.38 | 0.38 | 77 | 1004.5 |
| 20260508164304 | 16 | 284 | 9.7 | 32.2 | 0.00 | 0.38 | 0.38 | 75 | 1004.7 |
| 20260508161304 | 16 | 281 | 11.3 | 45.1 | 0.00 | 0.38 | 0.38 | 74 | 1004.4 |
| 20260508160804 | 16 | 300 | 11.3 | 33.8 | 0.00 | 0.38 | 0.38 | 71 | 1004.5 |
| 20260508155804 | 17 | 291 | 9.7 | 29.0 | 0.00 | 0.38 | 0.38 | 72 | 1004.2 |
| 20260508155306 | 17 | 270 | 12.9 | 32.2 | 0.00 | 0.38 | 0.38 | 68 | 1004.4 |
| 20260508154304 | 17 | 261 | 14.5 | 29.0 | 0.00 | 0.38 | 0.38 | 67 | 1004.6 |
| 20260508152804 | 17 | 292 | 11.3 | 37.0 | 0.00 | 0.38 | 0.38 | 71 | 1004.4 |
| 20260508151804 | 17 | 311 | 11.3 | 27.4 | 0.00 | 0.38 | 0.38 | 73 | 1004.7 |
| 20260508151305 | 17 | 279 | 19.3 | 33.8 | 0.00 | 0.38 | 0.38 | 69 | 1004.7 |
| 20260508150804 | 17 | 286 | 12.9 | 32.2 | 0.00 | 0.38 | 0.38 | 70 | 1004.7 |
| 20260508150305 | 16 | 299 | 9.7 | 29.0 | 0.00 | 0.38 | 0.38 | 71 | 1004.6 |
| 20260508141805 | 17 | 314 | 11.3 | 33.8 | 0.00 | 0.38 | 0.38 | 73 | 1004.5 |
| 20260508141305 | 16 | 298 | 11.3 | 29.0 | 0.00 | 0.38 | 0.38 | 75 | 1004.7 |
| 20260508135306 | 16 | 290 | 14.5 | 22.5 | 0.00 | 0.38 | 0.38 | 71 | 1004.6 |
| 20260508130805 | 16 | 318 | 14.5 | 37.0 | 0.00 | 0.38 | 0.38 | 71 | 1005.1 |
| 20260508130306 | 16 | 277 | 9.7 | 25.7 | 0.00 | 0.38 | 0.38 | 76 | 1005.2 |
| 20260508125806 | 15 | 272 | 8.0 | 27.4 | 0.00 | 0.38 | 0.38 | 79 | 1005.0 |
| 20260508123805 | 15 | 321 | 4.8 | 19.3 | 0.00 | 0.38 | 0.38 | 79 | 1004.7 |
| 20260508121805 | 17 | 264 | 9.7 | 25.7 | 0.00 | 0.38 | 0.38 | 75 | 1004.9 |
| 20260508121305 | 16 | 288 | 9.7 | 22.5 | 0.00 | 0.38 | 0.38 | 78 | 1004.9 |
| 20260508120805 | 15 | 284 | 17.7 | 29.0 | 0.00 | 0.38 | 0.38 | 76 | 1005.1 |
| 20260508120305 | 16 | 292 | 8.0 | 25.7 | 0.00 | 0.38 | 0.38 | 80 | 1004.8 |
| 20260508115805 | 15 | 308 | 9.7 | 24.1 | 0.00 | 0.38 | 0.38 | 79 | 1005.2 |
| 20260508114805 | 15 | 301 | 6.4 | 14.5 | 0.00 | 0.38 | 0.38 | 80 | 1005.0 |
| 20260508114305 | 15 | 283 | 9.7 | 24.1 | 0.00 | 0.38 | 0.38 | 86 | 1005.1 |
| 20260508113805 | 15 | 299 | 16.1 | 33.8 | 0.00 | 0.38 | 0.38 | 86 | 1005.1 |
| 20260508113305 | 15 | 289 | 8.0 | 19.3 | 0.00 | 0.38 | 0.38 | 86 | 1005.1 |
| 20260508112806 | 15 | 308 | 9.7 | 32.2 | 0.00 | 0.38 | 0.38 | 87 | 1004.6 |
| 20260508112307 | 15 | 276 | 19.3 | 32.2 | 0.00 | 0.38 | 0.38 | 89 | 1005.0 |
| 20260508110805 | 14 | 271 | 9.7 | 27.4 | 0.00 | 0.38 | 0.38 | 88 | 1005.1 |
| 20260508110306 | 14 | 264 | 14.5 | 20.9 | 0.00 | 0.38 | 0.38 | 86 | 1005.1 |
| 20260508105306 | 15 | 296 | 4.8 | 19.3 | 0.00 | 0.38 | 0.38 | 87 | 1005.1 |
| 20260508104305 | 14 | 285 | 8.0 | 25.7 | 0.03 | 0.38 | 0.38 | 87 | 1005.1 |
| 20260508103805 | 15 | 279 | 4.8 | 19.3 | 0.03 | 0.38 | 0.38 | 88 | 1005.1 |
| 20260508103305 | 14 | 297 | 4.8 | 14.5 | 0.03 | 0.38 | 0.38 | 88 | 1005.2 |
| 20260508101805 | 14 | 292 | 11.3 | 27.4 | 0.03 | 0.38 | 0.38 | 90 | 1004.9 |
| 20260508100805 | 13 | 260 | 14.5 | 32.2 | 0.03 | 0.38 | 0.38 | 90 | 1004.7 |
| 20260508100305 | 13 | 260 | 9.7 | 32.2 | 0.03 | 0.38 | 0.38 | 90 | 1004.4 |
| 20260508095805 | 14 | 292 | 3.2 | 12.9 | 0.03 | 0.38 | 0.38 | 91 | 1004.5 |
| 20260508095307 | 14 | 279 | 3.2 | 19.3 | 0.03 | 0.38 | 0.38 | 91 | 1004.8 |
| 20260508094305 | 13 | 280 | 3.2 | 16.1 | 0.00 | 0.36 | 0.36 | 93 | 1005.0 |
| 20260508092805 | 13 | 301 | 4.8 | 9.7 | 0.00 | 0.36 | 0.36 | 94 | 1005.0 |
| 20260508091304 | 13 | 284 | 1.6 | 4.8 | 0.00 | 0.36 | 0.36 | 94 | 1004.7 |
| 20260508090805 | 13 | 269 | 3.2 | 8.0 | 0.00 | 0.36 | 0.36 | 93 | 1004.8 |
| 20260508085806 | 13 | 289 | 4.8 | 16.1 | 0.05 | 0.36 | 0.36 | 93 | 1004.9 |
| 20260508084805 | 12 | 294 | 3.2 | 8.0 | 0.08 | 0.36 | 0.36 | 93 | 1005.0 |
| 20260508083305 | 12 | 302 | 3.2 | 14.5 | 0.08 | 0.36 | 0.36 | 93 | 1004.3 |
| 20260508082306 | 12 | 309 | 3.2 | 8.0 | 0.08 | 0.36 | 0.36 | 92 | 1004.5 |
| 20260508081806 | 12 | 276 | 4.8 | 20.9 | 0.08 | 0.36 | 0.36 | 92 | 1004.8 |
| 20260508081306 | 12 | 315 | 4.8 | 16.1 | 0.08 | 0.36 | 0.36 | 92 | 1004.9 |
| 20260508071805 | 13 | 309 | 11.3 | 27.4 | 0.00 | 0.28 | 0.28 | 93 | 1004.4 |
| 20260508065805 | 12 | 308 | 4.8 | 14.5 | 0.00 | 0.28 | 0.28 | 94 | 1004.5 |
| 20260508064305 | 12 | 307 | 3.2 | 8.0 | 0.00 | 0.28 | 0.28 | 94 | 1004.4 |
| 20260508063805 | 12 | 304 | 3.2 | 16.1 | 0.00 | 0.28 | 0.28 | 94 | 1004.4 |
| 20260508060804 | 12 | 286 | 4.8 | 19.3 | 0.00 | 0.28 | 0.28 | 95 | 1004.5 |
| 20260508060304 | 12 | 274 | 3.2 | 16.1 | 0.00 | 0.28 | 0.28 | 95 | 1004.3 |
| 20260508055805 | 12 | 260 | 4.8 | 11.3 | 0.00 | 0.28 | 0.28 | 95 | 1004.3 |
| 20260508053804 | 12 | 319 | 4.8 | 11.3 | 0.00 | 0.28 | 0.28 | 95 | 1004.4 |
| 20260508053305 | 12 | 280 | 3.2 | 11.3 | 0.03 | 0.28 | 0.28 | 95 | 1004.1 |
| 20260508052805 | 12 | 303 | 3.2 | 11.3 | 0.05 | 0.28 | 0.28 | 95 | 1004.3 |
| 20260508052307 | 12 | 299 | 1.6 | 9.7 | 0.05 | 0.28 | 0.28 | 95 | 1004.3 |
| 20260508045307 | 13 | 218 | 3.2 | 4.8 | 0.05 | 0.28 | 0.28 | 95 | 1003.6 |
| 20260508044805 | 13 | 275 | 4.8 | 8.0 | 0.05 | 0.28 | 0.28 | 95 | 1003.8 |
| 20260508044305 | 13 | 292 | 4.8 | 19.3 | 0.10 | 0.28 | 0.28 | 95 | 1003.5 |
| 20260508043804 | 13 | 289 | 3.2 | 8.0 | 0.20 | 0.28 | 0.28 | 95 | 1003.4 |
| 20260508043305 | 13 | 234 | 1.6 | 11.3 | 0.23 | 0.25 | 0.25 | 95 | 1003.2 |
| 20260508042307 | 13 | 297 | 3.2 | 16.1 | 0.20 | 0.23 | 0.23 | 95 | 1003.0 |
| 20260508041805 | 13 | 300 | 1.6 | 4.8 | 0.20 | 0.23 | 0.23 | 95 | 1003.1 |
| 20260508040305 | 13 | 296 | 3.2 | 8.0 | 0.20 | 0.23 | 0.23 | 95 | 1004.5 |
| 20260508033305 | 13 | 283 | 6.4 | 16.1 | 0.00 | 0.03 | 0.03 | 94 | 1004.1 |
| 20260508032805 | 14 | 268 | 11.3 | 37.0 | 0.00 | 0.03 | 0.03 | 94 | 1003.9 |
| 20260508031805 | 14 | 268 | 11.3 | 25.7 | 0.00 | 0.03 | 0.03 | 94 | 1004.2 |
| 20260508031306 | 14 | 225 | 16.1 | 38.6 | 0.00 | 0.03 | 0.03 | 94 | 1003.6 |
| 20260508025306 | 13 | 254 | 14.5 | 24.1 | 0.00 | 0.03 | 0.03 | 94 | 1005.1 |
| 20260508024805 | 13 | 229 | 11.3 | 22.5 | 0.00 | 0.03 | 0.03 | 94 | 1005.1 |
| 20260508024306 | 13 | 249 | 16.1 | 24.1 | 0.00 | 0.03 | 0.03 | 94 | 1005.1 |
| 20260508022805 | 13 | 233 | 9.7 | 24.1 | 0.00 | 0.03 | 0.03 | 93 | 1005.6 |
| 20260508022307 | 13 | 256 | 12.9 | 24.1 | 0.00 | 0.03 | 0.03 | 93 | 1005.7 |
| 20260508021305 | 13 | 227 | 14.5 | 27.4 | 0.00 | 0.03 | 0.03 | 93 | 1005.8 |
| 20260508020805 | 13 | 252 | 12.9 | 25.7 | 0.00 | 0.03 | 0.03 | 93 | 1005.9 |
| 20260508020305 | 13 | 240 | 14.5 | 20.9 | 0.00 | 0.03 | 0.03 | 93 | 1005.9 |
| 20260508014805 | 13 | 269 | 11.3 | 20.9 | 0.00 | 0.03 | 0.03 | 91 | 1006.0 |
| 20260508014304 | 13 | 265 | 14.5 | 25.7 | 0.00 | 0.03 | 0.03 | 91 | 1006.5 |
| 20260508013805 | 13 | 254 | 17.7 | 33.8 | 0.00 | 0.03 | 0.03 | 90 | 1006.7 |
| 20260508010305 | 14 | 275 | 11.3 | 19.3 | 0.00 | 0.03 | 0.03 | 87 | 1006.7 |
| 20260508005805 | 14 | 269 | 14.5 | 25.7 | 0.00 | 0.03 | 0.03 | 87 | 1006.9 |
| 20260508005306 | 14 | 257 | 8.0 | 20.9 | 0.00 | 0.03 | 0.03 | 87 | 1006.8 |
| 20260508004304 | 14 | 258 | 8.0 | 20.9 | 0.03 | 0.03 | 0.03 | 87 | 1006.6 |
| 20260508003805 | 14 | 207 | 11.3 | 20.9 | 0.03 | 0.03 | 0.03 | 86 | 1007.1 |
| 20260508002804 | 14 | 262 | 9.7 | 24.1 | 0.03 | 0.03 | 0.03 | 87 | 1007.3 |
| 20260508002306 | 14 | 218 | 11.3 | 24.1 | 0.03 | 0.03 | 0.03 | 87 | 1007.3 |
| 20260508001805 | 14 | 270 | 9.7 | 29.0 | 0.03 | 0.03 | 0.03 | 87 | 1007.0 |
| 20260508001304 | 14 | 278 | 9.7 | 19.3 | 0.03 | 0.03 | 0.03 | 86 | 1007.4 |
| 20260508000805 | 14 | 272 | 8.0 | 24.1 | 0.03 | 0.03 | 0.03 | 86 | 1007.6 |
| 20260508000305 | 14 | 271 | 12.9 | 20.9 | 0.03 | 0.03 | 0.03 | 87 | 1007.6 |
| 20260507235805 | 14 | 254 | 8.0 | 19.3 | 0.03 | 0.03 | 0.03 | 86 | 1007.4 |
| 20260507235307 | 14 | 222 | 17.7 | 25.7 | 0.03 | 0.03 | 0.03 | 86 | 1007.4 |
| 20260507234804 | 14 | 208 | 11.3 | 22.5 | 0.00 | 0.00 | 0.00 | 84 | 1007.6 |
| 20260507233805 | 14 | 241 | 11.3 | 19.3 | 0.00 | 0.00 | 0.00 | 85 | 1007.4 |
| 20260507233305 | 14 | 203 | 6.4 | 16.1 | 0.00 | 0.00 | 0.00 | 84 | 1007.4 |
| 20260507232306 | 14 | 221 | 16.1 | 16.1 | 0.00 | 0.00 | 0.00 | 85 | 1007.7 |
| 20260507231805 | 14 | 226 | 8.0 | 16.1 | 0.00 | 0.00 | 0.00 | 85 | 1007.9 |
| 20260507231304 | 14 | 224 | 6.4 | 14.5 | 0.00 | 0.00 | 0.00 | 84 | 1007.8 |
| 20260507230805 | 14 | 226 | 6.4 | 14.5 | 0.00 | 0.00 | 0.00 | 84 | 1008.0 |
| 20260507224804 | 14 | 162 | 6.4 | 9.7 | 0.00 | 0.00 | 0.00 | 81 | 1008.1 |
| 20260507224305 | 14 | 155 | 4.8 | 12.9 | 0.00 | 0.00 | 0.00 | 80 | 1007.6 |